Wind_Speed
20 20 21 22 22 22 22 23 25 27 29 30 30 31 30 29 28 27 26 24 23 21 20 20 19 18 17 17 17 17 17 17 17 17 17 17 18 18 18 18 18 18
17 18 19 20 21 20 20 21 22 23 25 26 27 28 29 29 29 29 28 27 25 24 23 22 21 21 20 19 19 18 18 18 18 18 18 19 19 19 19 19 19 19
14 16 17 18 19 19 19 19 19 19 20 22 24 25 25 26 27 27 27 27 27 26 25 24 23 22 22 21 20 20 19 19 19 19 19 20 20 20 20 20 21 21
11 13 14 15 17 18 18 18 17 17 17 17 19 21 22 22 23 24 24 25 25 26 25 25 24 23 23 22 21 21 20 20 19 19 19 19 20 20 21 21 21 21
10 11 12 13 14 15 16 16 16 15 15 14 15 17 18 19 19 20 21 21 22 23 24 24 24 24 23 23 22 21 21 20 20 19 19 19 20 20 20 20 20 21
11 11 11 11 11 12 13 13 13 13 13 13 12 13 15 16 17 17 18 19 19 20 21 21 22 22 22 22 22 22 21 21 20 20 20 20 19 19 19 19 19 19
14 14 12 11 10 10 10 10 11 11 11 12 11 11 11 13 13 14 15 16 17 17 17 17 18 19 20 20 20 20 21 21 21 20 20 20 19 19 19 19 18 18
16 17 16 14 12 11 10 9 9 9 10 10 10 10 9 10 10 11 12 13 14 15 15 15 15 16 16 17 17 17 18 19 19 19 20 19 19 19 18 18 18 18
16 18 18 18 16 14 12 11 10 9 9 9 8 8 8 8 8 8 9 10 10 11 12 12 13 13 14 14 15 15 15 16 17 17 17 18 18 18 18 17 17 17
18 18 19 20 20 18 16 14 13 12 11 11 9 8 8 8 7 6 6 7 8 8 8 9 10 11 11 12 13 14 15 15 16 16 16 16 16 17 17 17 16 16
20 20 20 21 22 22 20 18 17 15 14 13 12 11 8 8 8 6 6 6 6 7 7 7 7 8 9 10 10 12 13 14 15 15 15 15 16 16 16 16 15 15
23 23 22 22 24 25 24 22 20 19 18 16 16 15 12 10 9 8 7 6 6 6 6 6 6 6 7 8 9 10 11 12 13 13 14 15 16 16 15 15 15 15
26 25 25 25 26 27 27 26 24 23 22 20 18 17 16 13 11 11 10 8 7 7 7 7 6 5 6 7 8 9 9 10 11 12 13 14 15 16 17 16 15 14
28 28 28 28 28 29 30 29 28 27 26 24 22 19 18 16 14 13 13 11 10 9 10 9 8 6 6 5 6 7 8 9 10 10 11 13 14 15 16 17 17 15
31 31 31 31 31 32 32 32 31 31 30 28 25 22 21 19 17 16 15 14 13 13 13 13 11 10 9 8 7 8 9 9 9 9 10 11 13 14 15 15 16 16
35 35 35 35 35 35 35 35 34 33 33 31 28 25 24 22 20 19 18 18 17 17 17 16 15 15 14 13 10 10 11 11 10 10 10 10 11 13 14 14 15 15
39 39 39 38 37 37 36 37 36 35 35 33 30 27 25 24 23 22 21 21 21 22 21 18 17 17 17 17 15 14 14 14 13 12 12 12 12 13 15 15 15 16
44 43 42 41 40 38 37 38 38 37 37 35 31 28 25 25 25 25 24 24 25 26 25 20 17 17 18 18 18 16 16 15 15 15 15 15 14 16 17 17 17 17
46 46 44 42 41 40 39 39 38 36 36 37 35 31 28 27 26 25 24 25 27 29 29 25 20 19 19 19 19 19 18 17 16 16 16 16 17 19 19 18 18 18
47 47 46 44 44 43 42 41 38 35 33 33 32 31 29 28 27 26 26 27 29 30 31 29 26 23 22 22 21 21 20 19 18 17 17 18 21 21 20 19 20 20
46 46 46 45 44 42 40 39 39 37 34 33 33 32 31 30 29 29 30 30 31 33 34 33 29 26 25 24 24 23 21 20 20 19 19 21 23 23 21 21 22 22
46 46 45 44 43 41 40 40 40 40 37 36 37 37 36 34 33 32 33 33 33 33 34 34 31 29 29 28 28 27 26 25 24 24 24 25 25 24 23 23 23 24
52 51 52 51 50 49 47 45 44 43 41 40 42 42 41 39 37 36 36 36 35 33 33 34 34 33 33 33 32 31 31 31 31 30 29 29 29 28 26 25 25 25
56 57 56 56 55 54 53 51 49 47 46 45 46 49 47 44 43 42 41 40 40 38 37 37 38 38 37 36 35 36 36 36 37 37 36 34 33 33 32 31 29 28
56 60 60 59 57 54 53 52 51 50 50 49 50 52 51 48 47 47 46 44 43 43 42 42 42 42 42 41 41 42 42 42 42 42 41 40 38 36 36 36 35 33
53 58 61 62 61 58 54 52 50 49 51 53 53 52 51 51 50 50 49 48 47 46 46 46 47 48 48 48 47 47 46 45 45 44 44 43 42 41 40 39 38 35
Wind_Direction
36 40 44 45 46 46 48 52 56 60 62 63 64 64 65 66 66 67 68 68 69 71 72 74 74 74 73 72 72 69 67 66 67 67 66 66 65 64 63 62 60 58
29 33 37 41 43 44 44 46 51 56 60 63 65 65 65 66 65 65 67 68 69 70 70 71 72 73 74 75 75 74 72 72 72 72 71 71 71 70 68 66 63 61
22 25 28 33 38 40 41 42 45 49 54 59 63 66 66 65 65 65 65 66 67 67 67 68 69 70 71 73 74 74 73 73 72 72 70 70 70 71 70 67 64 63
10 15 18 24 29 33 36 37 39 42 46 51 57 61 64 64 64 63 63 64 65 65 65 65 65 65 66 68 69 69 69 69 68 68 67 66 65 65 65 64 63 62
348 356 3 11 19 25 30 32 34 35 38 43 48 53 58 60 61 60 59 60 62 63 63 62 61 60 59 60 60 60 61 61 61 62 62 61 60 60 60 59 58 57
323 331 340 350 2 12 19 23 26 27 28 33 37 42 47 52 55 56 55 55 56 58 60 60 59 57 55 54 54 54 53 52 52 53 55 57 57 56 55 54 53 53
310 314 318 325 335 349 360 8 13 14 16 20 24 29 33 40 46 51 51 52 55 55 56 56 56 55 53 52 52 52 51 49 48 47 48 49 50 50 51 51 51 50
305 306 307 308 311 319 331 342 349 353 358 5 13 17 20 25 32 40 43 47 51 53 53 53 53 53 51 48 47 47 46 45 44 42 42 41 42 43 44 46 48 49
296 302 303 302 300 302 307 314 322 329 333 340 352 1 5 9 15 23 30 35 43 48 50 50 50 50 50 46 42 39 36 35 34 33 33 33 34 36 38 41 43 45
284 294 299 298 295 294 295 297 301 307 312 316 322 333 345 353 358 4 9 16 27 34 37 40 41 44 45 43 40 36 31 29 29 27 24 22 24 27 30 34 37 41
275 282 290 294 294 290 287 287 290 293 297 301 305 308 318 330 337 343 349 351 3 12 15 19 23 28 31 30 31 30 27 26 26 24 19 15 14 17 18 22 26 30
268 274 281 286 289 288 283 281 283 286 287 289 292 294 299 309 318 324 330 334 338 344 347 350 359 10 15 13 13 17 19 18 17 15 13 10 9 9 10 12 13 15
264 268 273 278 281 283 281 277 276 279 282 282 281 284 287 292 302 308 314 320 320 317 316 321 331 344 351 354 356 2 8 8 5 5 5 4 3 3 4 6 7 6
262 264 267 271 273 275 275 272 270 272 276 276 274 275 277 280 285 292 300 304 304 300 300 303 309 314 318 322 328 337 347 353 351 352 354 354 356 355 356 357 359 1
259 260 261 263 265 267 267 266 265 266 269 270 269 269 272 273 273 277 286 292 292 292 293 295 298 298 297 299 306 311 320 330 334 334 338 342 344 345 345 345 347 349
255 256 257 260 262 265 267 267 265 265 267 269 271 272 273 274 272 270 273 281 285 285 284 287 290 290 292 297 302 303 306 313 317 317 319 322 326 329 329 328 330 334
252 252 253 256 260 263 266 268 267 266 266 268 271 272 273 274 273 269 268 271 276 278 277 279 282 286 291 296 300 303 305 308 309 307 306 307 309 310 308 308 314 321
249 250 251 252 255 258 262 264 264 263 263 264 265 267 268 269 270 270 268 267 271 274 276 278 282 286 290 293 297 299 301 303 303 300 299 299 298 296 294 298 306 311
246 248 250 251 253 254 256 260 263 263 263 263 263 263 263 265 270 272 268 265 267 271 274 277 281 284 286 290 291 292 293 294 292 291 292 291 288 286 288 293 299 302
245 247 249 249 252 254 254 257 259 261 261 261 262 263 263 266 272 274 270 267 267 267 269 272 274 277 282 286 288 289 290 292 291 290 286 281 280 282 284 287 289 291
243 246 249 249 250 253 254 254 255 255 256 256 258 262 264 264 268 270 270 269 269 268 267 266 267 271 277 283 285 285 286 289 291 292 288 283 282 283 283 282 283 284
241 243 247 248 249 250 251 253 254 256 256 255 258 261 263 261 261 262 263 264 264 263 262 260 261 265 271 277 281 282 281 283 284 285 285 284 285 284 281 279 280 281
242 243 246 249 249 250 251 252 254 256 256 257 259 260 260 259 258 257 257 258 260 259 256 255 257 262 267 271 275 277 278 279 278 277 276 277 278 278 277 275 274 276
244 245 245 247 248 250 251 251 252 254 254 257 259 259 257 257 257 257 256 255 257 258 257 256 257 260 263 266 268 271 274 276 275 274 274 273 272 272 274 273 272 273
247 246 245 245 247 249 251 252 253 253 252 254 257 258 257 256 255 256 257 257 257 258 259 260 259 259 261 262 266 271 274 274 272 271 272 272 271 269 269 270 271 272
248 248 247 246 246 247 249 249 250 252 253 253 254 256 257 257 256 256 257 257 258 259 260 261 262 262 262 263 267 273 276 273 271 270 270 270 271 269 267 266 266 267
Height
11028 11027 11026 11025 11024 11023 11022 11021 11020 11019 11018 11017 11016 11015 11014 11013 11012 11012 11011 11010 11009 11009 11008 11008 11007 11007 11007 11007 11006 11006 11005 11005 11005 11005 11005 11004 11004 11003 11002 11002 11001 11000
11030 11029 11028 11027 11026 11026 11025 11024 11023 11022 11021 11020 11019 11018 11017 11016 11016 11015 11014 11013 11012 11012 11011 11010 11010 11010 11009 11009 11008 11008 11008 11008 11008 11007 11007 11006 11006 11005 11004 11004 11003 11003
11032 11031 11030 11029 11028 11028 11027 11026 11026 11025 11024 11023 11022 11022 11021 11020 11019 11018 11017 11016 11015 11015 11014 11013 11013 11012 11012 11011 11011 11011 11010 11010 11010 11010 11009 11009 11008 11007 11007 11006 11005 11004
11033 11032 11032 11031 11030 11029 11028 11028 11027 11027 11027 11026 11025 11024 11023 11023 11022 11021 11020 11019 11018 11018 11017 11017 11016 11015 11015 11014 11014 11013 11013 11012 11012 11012 11011 11011 11010 11010 11009 11008 11007 11006
11034 11034 11033 11032 11031 11031 11030 11029 11029 11029 11029 11028 11027 11026 11026 11025 11024 11024 11023 11022 11021 11020 11020 11019 11019 11018 11018 11017 11016 11016 11015 11015 11014 11014 11013 11013 11012 11011 11011 11010 11009 11008
11034 11035 11034 11033 11033 11032 11031 11031 11030 11030 11030 11029 11029 11028 11027 11027 11026 11025 11025 11024 11023 11022 11022 11022 11021 11020 11020 11019 11019 11018 11017 11016 11016 11015 11014 11014 11013 11013 11012 11012 11011 11010
11035 11035 11035 11034 11034 11033 11032 11032 11031 11031 11031 11030 11029 11029 11028 11028 11027 11027 11026 11026 11025 11024 11024 11023 11023 11022 11022 11021 11021 11020 11019 11018 11017 11017 11016 11015 11015 11014 11013 11013 11012 11011
11034 11034 11034 11034 11034 11034 11033 11033 11032 11031 11031 11031 11030 11029 11029 11029 11028 11028 11027 11027 11026 11026 11025 11025 11024 11024 11023 11022 11022 11021 11020 11020 11019 11018 11017 11017 11016 11015 11014 11013 11013 11012
11034 11034 11034 11034 11034 11034 11033 11033 11032 11031 11031 11031 11030 11030 11030 11029 11029 11029 11028 11028 11027 11026 11026 11025 11025 11024 11024 11023 11022 11022 11021 11021 11020 11019 11019 11018 11017 11016 11015 11015 11014 11013
11032 11033 11033 11033 11033 11033 11033 11032 11031 11031 11030 11030 11030 11030 11030 11029 11029 11029 11028 11028 11027 11027 11026 11025 11025 11024 11024 11023 11023 11022 11022 11021 11021 11020 11019 11018 11018 11017 11016 11016 11015 11014
11030 11031 11031 11032 11032 11032 11032 11031 11031 11030 11030 11030 11030 11030 11030 11029 11029 11029 11028 11028 11027 11027 11026 11025 11025 11024 11024 11023 11023 11022 11022 11021 11021 11020 11019 11019 11018 11018 11017 11017 11016 11015
11027 11028 11029 11029 11029 11029 11029 11030 11029 11029 11029 11029 11029 11029 11029 11029 11029 11028 11028 11027 11027 11026 11026 11025 11024 11024 11024 11023 11023 11022 11022 11022 11021 11021 11020 11020 11019 11019 11018 11018 11017 11016
11024 11025 11025 11026 11026 11026 11027 11027 11027 11027 11027 11028 11028 11028 11028 11028 11028 11028 11027 11027 11026 11026 11025 11024 11023 11023 11023 11022 11022 11022 11022 11021 11021 11021 11020 11020 11020 11019 11019 11018 11018 11017
11020 11021 11021 11022 11022 11023 11023 11024 11024 11024 11024 11025 11025 11025 11025 11026 11026 11026 11026 11026 11025 11025 11024 11023 11023 11022 11022 11022 11021 11021 11021 11021 11020 11020 11020 11020 11020 11019 11019 11018 11018 11017
11016 11016 11017 11017 11018 11018 11019 11020 11020 11020 11020 11021 11021 11022 11023 11023 11024 11024 11024 11024 11024 11023 11022 11022 11022 11021 11021 11020 11020 11020 11020 11020 11020 11020 11020 11020 11020 11020 11019 11019 11018 11017
11011 11011 11012 11012 11013 11014 11015 11016 11017 11018 11017 11018 11019 11020 11021 11021 11022 11022 11022 11022 11021 11021 11020 11020 11020 11020 11019 11019 11019 11019 11019 11019 11019 11020 11020 11020 11019 11019 11019 11018 11018 11017
11004 11005 11007 11008 11009 11011 11012 11013 11014 11016 11016 11016 11017 11018 11019 11019 11019 11020 11020 11020 11019 11018 11017 11017 11018 11018 11017 11018 11018 11018 11018 11018 11018 11019 11019 11019 11019 11018 11017 11017 11017 11017
10997 10999 11001 11003 11005 11007 11008 11009 11010 11012 11013 11014 11015 11015 11016 11016 11016 11017 11018 11017 11016 11015 11014 11015 11016 11016 11016 11016 11017 11017 11017 11017 11017 11017 11017 11018 11017 11016 11015 11016 11016 11016
10991 10993 10996 10998 11000 11002 11004 11005 11006 11008 11009 11010 11010 11011 11011 11012 11014 11015 11015 11015 11014 11013 11012 11013 11014 11014 11014 11014 11014 11014 11014 11015 11015 11015 11015 11015 11015 11014 11014 11014 11015 11015
10986 10987 10990 10992 10994 10996 10999 11001 11003 11004 11006 11006 11006 11006 11007 11009 11011 11012 11012 11011 11011 11010 11010 11011 11011 11011 11012 11012 11012 11011 11011 11012 11012 11012 11013 11012 11011 11011 11012 11013 11013 11012
10981 10982 10984 10987 10990 10992 10994 10996 10997 10999 11001 11002 11002 11002 11003 11005 11007 11008 11007 11008 11007 11007 11007 11008 11008 11009 11009 11009 11009 11009 11009 11009 11009 11010 11010 11009 11008 11008 11009 11010 11010 11010
10976 10977 10978 10981 10985 10987 10988 10989 10991 10994 10996 10997 10996 10997 10998 11000 11002 11003 11003 11003 11003 11003 11003 11004 11005 11006 11006 11006 11006 11006 11006 11006 11007 11007 11006 11006 11006 11006 11006 11006 11006 11007
10971 10971 10971 10974 10978 10980 10982 10984 10987 10989 10991 10991 10990 10990 10992 10993 10995 10997 10998 10998 10999 10999 11000 11000 11000 11001 11002 11003 11003 11003 11003 11003 11003 11003 11003 11003 11002 11003 11003 11003 11003 11003
10965 10964 10964 10966 10969 10973 10976 10979 10982 10984 10985 10985 10983 10982 10984 10987 10988 10990 10992 10993 10994 10995 10995 10996 10996 10996 10997 10998 10998 10998 10999 10999 10999 10999 10999 10999 10999 10999 10999 10999 10999 10999
10959 10956 10956 10959 10963 10969 10974 10976 10977 10978 10978 10978 10976 10975 10977 10980 10982 10983 10985 10987 10988 10989 10989 10990 10991 10991 10991 10992 10992 10993 10993 10994 10994 10994 10994 10994 10994 10995 10995 10995 10995 10995
10952 10950 10949 10951 10955 10963 10969 10972 10971 10970 10970 10970 10970 10971 10972 10974 10975 10976 10978 10980 10982 10983 10983 10984 10985 10985 10985 10985 10986 10986 10986 10987 10987 10988 10989 10989 10989 10989 10989 10990 10990 10991